Location: Newark
(33.6439°N, 114.9881°W)
Time: 02:15:55
(UTC+00:00)

Tiros 1 - Pass Details

Date: 21 July 2019
Orbit: 631 x 664 km, 48.4° (Epoch: 24 August)

Event Time Altitude Azimuth Distance (km) Brightness Sun altitude
Rises 18:59:41 0° 232° (SW) 2,968 10.6 73.2°
Reaches altitude 10° 19:02:00 10° 233° (SW) 2,063 9.9 73.5°
Maximum altitude 19:06:47 84° 321° (NW) 668 8.9 74.1°
Drops below altitude 10° 19:11:36 10° 50° (NE) 2,081 9.9 74.7°
Sets 19:13:58 0° 51° (NE) 2,996 10.6 74.9°
